[[{"header":{"parameterUnit":"m.s-1","parameterCategory":1,"la1":30.2991,"la2":30.254,"lo1":-89.0895,"lo2":-89.0444,"dy":0.0017,"dx":0.0017,"nx":28,"ny":28,"refTime":"2025-05-19T03:00:00:Z","depth":0,"parameterNumber":2,"parameterNumberName":"U-component_of_WINDS"},"data":[0,0,0,0,0,0,0,0,0,0,0,0,0,0,0,0,0,0,0,0,0,0,0,0,0,0,0,0,0,0,0,0,0,0,0,0,0,0,0,0,0,0,0,0,0,0,0,0,0,0,0,0,0,0,0,0,0,0,1.4958,1.4958,0,1.4949,1.4949,1.4949,1.4882,1.488,1.4879,1.4877,1.487,1.4872,1.4873,0,0,0,0,0,0,0,0,0,0,0,0,0,1.4921,1.4922,1.4958,1.4958,1.4958,1.4949,1.4949,1.4949,1.4882,1.488,1.4878,1.4876,1.487,1.4871,1.4873,0,0,0,0,0,0,0,0,0,0,0,0,0,1.4928,1.4923,1.4958,1.4924,1.492,1.4949,1.4949,1.4949,1.4883,1.488,1.4878,1.4876,1.4869,1.4871,1.4873,1.4935,0,0,1.488,1.488,0,0,0,0,0,0,0,0,1.4927,1.4929,1.4929,1.4926,1.4923,1.4914,1.4934,1.4945,1.4883,1.4897,1.4877,1.4874,1.4887,1.4888,1.4891,1.4935,1.4935,1.488,1.4881,1.4882,1.4882,0,0,0,0,0,0,0,1.4927,1.4929,1.4955,1.4929,1.4925,1.491,1.4908,1.4935,1.4906,1.4896,1.4891,1.4891,1.4885,1.489,1.4891,1.4935,1.488,1.4881,1.4883,1.4883,1.5032,1.5035,0,0,0,0,0,0,1.4931,1.4929,1.4955,1.4955,1.4919,1.4913,1.491,1.492,1.4906,1.4901,1.4893,1.4888,1.4887,1.4888,1.489,1.4964,1.4882,1.4884,1.4885,1.503,1.5033,1.5036,0,0,0,0,0,0,1.493,1.4934,1.4955,1.494,1.4942,1.4916,1.4927,1.4921,1.4925,1.4903,1.4898,1.4903,1.4885,1.4887,1.4925,1.4963,1.4885,1.4886,1.5026,1.5031,1.5034,1.5112,0,0,0,0,0,0,1.493,1.4934,1.4956,1.4941,1.4943,1.499,1.4929,1.4922,1.4929,1.4922,1.4911,1.4907,1.4884,1.4923,1.4927,1.4964,1.4888,1.5023,1.5028,1.5033,1.5106,1.5118,1.5128,0,0,0,0,0,1.4928,1.4978,1.4958,1.4961,1.497,1.4992,1.4993,1.4964,1.4932,1.4955,1.4941,1.4908,1.4958,1.4927,1.4932,1.497,1.502,1.5027,1.5033,1.51,1.5115,1.5128,0,0,0,0,0,0,1.4998,1.4976,1.4953,1.4999,1.4998,1.4981,1.5009,1.4981,1.4989,1.4982,1.4947,1.4945,1.4989,1.4983,1.4949,1.5031,1.4984,1.4991,1.5033,1.5047,1.5059,1.506,1.489,0,0,0,0,0,1.5019,1.5038,1.5017,1.506,1.5061,1.5035,1.5043,1.5021,1.5019,1.5019,1.5008,1.5008,1.5024,1.5035,1.5048,1.5104,1.5102,1.5133,1.5144,1.5154,1.5161,1.5193,1.5207,1.5056,1.5056,1.5056,0,0,1.5062,1.5052,1.5066,1.5074,1.507,1.5092,1.5035,1.506,1.5076,1.5022,1.5058,1.505,1.5048,1.5096,1.5117,1.5093,1.5202,1.5162,1.5169,1.5171,1.5201,1.5215,1.5228,1.506,1.506,1.5059,0,0,1.5152,1.5146,1.5182,1.518,1.5176,1.5159,1.5168,1.5155,1.5148,1.5183,1.5144,1.5164,1.5191,1.5192,1.5196,1.5289,1.5259,1.5295,1.5354,1.5386,1.5398,1.5408,1.5444,1.5457,1.5302,1.5302,1.5302,0,1.5207,1.5236,1.5204,1.5232,1.5238,1.519,1.5228,1.5228,1.5229,1.5234,1.5207,1.5242,1.5237,1.5286,1.5309,1.5313,1.5324,1.5296,1.5398,1.5409,1.5418,1.5451,1.5465,1.5306,1.5306,1.5305,1.5305,0,1.5305,1.5327,1.5356,1.5359,1.5367,1.54,1.5374,1.5387,1.5365,1.5352,1.539,1.5382,1.5395,1.5404,1.5383,1.5451,1.5437,1.5404,1.5356,1.5437,1.5468,1.5481,1.5313,1.5311,1.531,1.5309,0,0,1.5438,1.5423,1.5435,1.5436,1.5429,1.5446,1.5478,1.5489,1.5502,1.5505,1.5532,1.5558,1.5529,1.5534,1.5512,1.5539,1.5617,1.5504,1.5503,1.5527,1.5695,1.572,1.5735,1.5597,1.5599,1.5601,1.5696,0,1.5526,1.5578,1.5551,1.5607,1.5628,1.5585,1.5613,1.5613,1.5601,1.5619,1.5606,1.5626,1.5585,1.5588,1.5613,1.5602,1.565,1.5594,1.5623,1.5625,1.5627,1.5751,1.5777,1.5867,1.5707,1.5709,1.5711,0,1.5635,1.5643,1.5702,1.5693,1.5701,1.5726,1.5736,1.5753,1.5753,1.5743,1.575,1.5722,1.5754,1.5706,1.5752,1.5715,1.5725,1.5721,1.5724,1.5727,1.5674,1.5759,1.5895,1.5909,1.5729,1.5728,1.5726,0,1.5729,1.5754,1.5793,1.5796,1.5786,1.5805,1.5802,1.58,1.5809,1.5818,1.5825,1.5838,1.5845,1.5857,1.5835,1.5801,1.5884,1.5833,1.5879,1.588,1.5899,1.5898,1.6041,1.5903,1.5903,1.5903,1.5902,0,1.5831,1.5869,1.5836,1.586,1.5902,1.5871,1.5915,1.5907,1.5906,1.5929,1.5892,1.5915,1.5883,1.5904,1.5886,1.5928,1.5931,1.5926,1.5921,1.593,1.5931,1.5937,1.5931,1.5906,1.5905,1.5905,1.5904,0,1.5943,1.5922,1.5962,1.595,1.5948,1.598,1.5971,1.5994,1.598,1.6011,1.6016,1.5996,1.6018,1.5997,1.6018,1.6007,1.6063,1.6049,1.6063,1.606,1.6107,1.6104,1.626,1.628,1.6128,1.6129,1.6131,0,1.601,1.6039,1.6031,1.6043,1.6043,1.6064,1.6074,1.6045,1.6058,1.6061,1.6084,1.6103,1.6117,1.6156,1.6144,1.6161,1.6147,1.6201,1.615,1.6159,1.6151,1.615,1.6154,1.6212,1.6213,1.6215,1.6216,0,1.6133,1.6121,1.6137,1.615,1.6163,1.6171,1.6177,1.619,1.6161,1.6177,1.62,1.6211,1.6233,1.6254,1.6267,1.6265,1.6237,1.6232,1.6244,1.6254,1.6263,1.6261,1.6094,1.6229,1.6228,1.6227,1.6226,1.6226,1.6226,1.625,1.6249,1.6268,1.6269,1.6276,1.6298,1.6288,1.6306,1.6322,1.6304,1.6333,1.6334,1.6349,1.6352,1.6375,1.6352,1.6369,1.6373,1.6378,1.6386,1.6258,1.6377,1.6376,1.6376,1.6376,1.6375,0,1.6348,1.6345,1.6363,1.6373,1.6389,1.636,1.6366,1.6382,1.6407,1.641,1.6425,1.6453,1.6473,1.6464,1.6482,1.6502,1.649,1.6508,1.6507,1.6508,1.6404,1.6393,1.6518,1.6518,1.6518,1.6518,1.6518,1.6518,1.6413,1.6454,1.6443,1.6485,1.6482,1.6509,1.6515,1.6522,1.6525,1.6557,1.6574,1.6568,1.6567,1.6585,1.6604,1.66,1.661,1.6633,1.6626,1.6529,1.6515,1.6502,1.6491,1.6635,1.6635,1.6728,1.6729,1.673]},{"header":{"parameterUnit":"m.s-1","parameterCategory":1,"la1":30.2991,"la2":30.254,"lo1":-89.0895,"lo2":-89.0444,"dy":0.0017,"dx":0.0017,"nx":28,"ny":28,"refTime":"2025-05-19T03:00:00:Z","depth":0,"parameterNumber":3,"parameterNumberName":"V-component_of_WINDS"},"data":[0,0,0,0,0,0,0,0,0,0,0,0,0,0,0,0,0,0,0,0,0,0,0,0,0,0,0,0,0,0,0,0,0,0,0,0,0,0,0,0,0,0,0,0,0,0,0,0,0,0,0,0,0,0,0,0,0,0,5.711,5.7112,0,5.7327,5.733,5.7332,5.7361,5.7359,5.7357,5.7355,5.7572,5.7579,5.7587,0,0,0,0,0,0,0,0,0,0,0,0,0,5.6714,5.6721,5.7109,5.7112,5.7115,5.7327,5.733,5.7333,5.7361,5.7359,5.7356,5.7354,5.7569,5.7578,5.7588,0,0,0,0,0,0,0,0,0,0,0,0,0,5.6904,5.6723,5.7109,5.7155,5.7161,5.7326,5.733,5.7333,5.7362,5.7359,5.7356,5.7353,5.7566,5.7578,5.7589,5.7721,0,0,5.7624,5.7629,0,0,0,0,0,0,0,0,5.6893,5.6918,5.7145,5.7152,5.7159,5.7314,5.727,5.7463,5.7363,5.7285,5.7355,5.7351,5.7488,5.7506,5.7553,5.7731,5.7741,5.7625,5.7632,5.7637,5.764,0,0,0,0,0,0,0,5.688,5.6909,5.7195,5.7149,5.7157,5.7163,5.7186,5.7306,5.7401,5.7292,5.7295,5.732,5.7491,5.7542,5.7558,5.7744,5.7625,5.7635,5.7642,5.7647,5.8042,5.8046,0,0,0,0,0,0,5.6859,5.6898,5.7188,5.7202,5.7016,5.7172,5.7199,5.7267,5.74,5.7417,5.7323,5.7321,5.7524,5.7545,5.7566,5.7731,5.7637,5.7648,5.7654,5.8039,5.8043,5.8047,0,0,0,0,0,0,5.685,5.6885,5.718,5.7051,5.7089,5.7183,5.7259,5.7273,5.7324,5.7423,5.744,5.7358,5.7522,5.755,5.7683,5.7739,5.7653,5.7663,5.8035,5.804,5.8045,5.8061,0,0,0,0,0,0,5.6839,5.6881,5.6934,5.7052,5.7096,5.7295,5.7263,5.728,5.7345,5.7344,5.746,5.7477,5.7522,5.7666,5.7695,5.7753,5.7672,5.803,5.8037,5.8043,5.8056,5.8066,5.8075,0,0,0,0,0,5.6825,5.6928,5.6936,5.6971,5.7164,5.7298,5.7323,5.7375,5.7349,5.7402,5.7466,5.7473,5.7728,5.7679,5.7712,5.7775,5.8027,5.8035,5.8043,5.8052,5.8064,5.8075,0,0,0,0,0,0,5.6812,5.6944,5.6955,5.71,5.7188,5.7302,5.7371,5.7386,5.7481,5.7477,5.7535,5.7561,5.7692,5.7746,5.769,5.791,5.7875,5.789,5.787,5.7883,5.7892,5.7877,5.7682,0,0,0,0,0,5.6826,5.6926,5.7036,5.7153,5.7197,5.7276,5.7337,5.7369,5.7462,5.7498,5.7572,5.7659,5.7759,5.7824,5.7921,5.8063,5.8089,5.8123,5.8132,5.814,5.8152,5.8232,5.8249,5.8074,5.8074,5.8073,0,0,5.6857,5.6941,5.7,5.7153,5.7225,5.7326,5.7307,5.7414,5.7489,5.7514,5.7645,5.7702,5.7803,5.7942,5.8006,5.7991,5.8206,5.815,5.8155,5.8164,5.8242,5.8259,5.8273,5.8079,5.8078,5.8077,0,0,5.6964,5.7038,5.7145,5.7218,5.7327,5.7379,5.7405,5.7518,5.7557,5.769,5.7711,5.78,5.7971,5.8043,5.8102,5.8237,5.8247,5.8266,5.8317,5.8394,5.8408,5.842,5.8469,5.8486,5.8278,5.8278,5.8278,0,5.6987,5.7142,5.7197,5.7305,5.7371,5.74,5.7508,5.7574,5.7709,5.7754,5.7735,5.7951,5.8021,5.8178,5.8211,5.8257,5.8288,5.8254,5.8402,5.8415,5.8427,5.8475,5.8493,5.828,5.828,5.828,5.8279,0,5.7166,5.7273,5.7345,5.7478,5.7552,5.7658,5.7728,5.7796,5.7822,5.7876,5.8011,5.8096,5.8212,5.8251,5.8276,5.8411,5.8399,5.839,5.8356,5.8445,5.849,5.8509,5.8282,5.8282,5.8281,5.8281,0,0,5.7272,5.7434,5.746,5.7521,5.7644,5.7727,5.7834,5.795,5.8007,5.8098,5.819,5.8334,5.8328,5.8395,5.8428,5.8496,5.8598,5.8479,5.8482,5.8499,5.8753,5.8759,5.8779,5.8605,5.8609,5.8612,5.8744,0,5.7394,5.759,5.7642,5.7807,5.7907,5.7935,5.8029,5.8114,5.8167,5.8257,5.8314,5.8416,5.8399,5.844,5.8508,5.8571,5.865,5.8562,5.869,5.8694,5.8666,5.8803,5.881,5.8931,5.8762,5.8765,5.8768,0,5.7563,5.7661,5.7837,5.7949,5.7992,5.8076,5.8186,5.8272,5.8369,5.8402,5.8477,5.8505,5.8617,5.8576,5.873,5.867,5.8725,5.8764,5.8769,5.8784,5.8737,5.8822,5.8971,5.899,5.8796,5.8794,5.8792,0,5.7624,5.78,5.7928,5.7979,5.8112,5.817,5.8227,5.8321,5.8387,5.8483,5.8526,5.8632,5.869,5.8771,5.8826,5.8791,5.8977,5.894,5.9007,5.9006,5.9046,5.9043,5.9207,5.9079,5.9079,5.9079,5.9078,0,5.7757,5.7863,5.7958,5.8037,5.8157,5.8215,5.8331,5.839,5.8473,5.8562,5.8592,5.8675,5.8742,5.8834,5.8877,5.8999,5.9024,5.9054,5.9065,5.9053,5.9049,5.909,5.9084,5.9083,5.9082,5.9081,5.9081,0,5.7846,5.7913,5.8055,5.817,5.8201,5.8285,5.8382,5.8459,5.8512,5.8625,5.8655,5.8739,5.8849,5.8911,5.9048,5.9077,5.9213,5.9219,5.9182,5.9187,5.9251,5.9244,5.9448,5.9478,5.9329,5.933,5.9332,0,5.7926,5.8009,5.8134,5.8197,5.8256,5.8357,5.8426,5.8486,5.8555,5.8672,5.8734,5.8846,5.8939,5.9113,5.9185,5.929,5.9299,5.9363,5.9315,5.93,5.9301,5.9296,5.9305,5.9371,5.9373,5.9374,5.9375,0,5.8062,5.8092,5.8191,5.8302,5.8383,5.8472,5.8561,5.861,5.8685,5.8761,5.8875,5.8947,5.9088,5.9199,5.931,5.9367,5.9384,5.9389,5.9411,5.94,5.9375,5.9391,5.9206,5.9385,5.9384,5.9383,5.9382,5.9382,5.8151,5.8227,5.8326,5.8435,5.8509,5.8591,5.867,5.8734,5.883,5.8952,5.898,5.91,5.9194,5.9345,5.9405,5.9499,5.9487,5.9518,5.9526,5.9533,5.9536,5.9359,5.9519,5.9519,5.9518,5.9518,5.9518,0,5.829,5.8356,5.8455,5.858,5.8665,5.8675,5.8773,5.8843,5.8949,5.9036,5.9128,5.9258,5.9366,5.9446,5.9556,5.9615,5.9625,5.9642,5.9639,5.9652,5.9539,5.951,5.9632,5.9632,5.9632,5.9632,5.9632,5.9632,5.8372,5.8501,5.8543,5.8708,5.8772,5.8892,5.8948,5.9023,5.9093,5.9239,5.9329,5.9381,5.9466,5.9582,5.9681,5.9701,5.9741,5.9756,5.9778,5.9672,5.966,5.9648,5.9621,5.9764,5.9764,5.9884,5.9885,5.9886]}]]